www.pogodaiklimat.ru

ПОГОДА в Ильичёвске

  • Прогноз погоды в Ильичёвске
  • Монитор погоды в Ильичёвске
  • Климат города

АРХИВ ПОГОДЫ в Ильичёвске

Время (UTC), дата Ветер
(напр.,м/с)
 
Видим.   Явления Облачность Т
(С)
Тd
(С)
f
(%)
Тe
(С)
Тes
(С)
Комфортность P
(гПа)
Po
(гПа)
Тmin
(С)
Tmax
(С)
R
(мм)
S
(см)
21 19.03 С 3 4000 м слабый ливневой дождь 10/10 300 м
[Cb cap]
+3.4 +2.7 95 -1 -1 1021.9 1019.3
00 20.03 С 2 4000 м слабый ливневой дождь 10/10 300 м
[Cb cap]
+4.2 +3.5 95 +1 +1 1020.4 1017.9 5
03 20.03 С 2 4000 м слабый ливневой дождь 10/10 300 м
[Cb cap]
+3.8 +2.8 93 +1 +1 1019.3 1016.8
06 20.03 СВ 3 14 км слабый ливневой дождь 10/10 600 м
[Cb cap]
+5.1 +2.7 84 +2 +2 1019.3 1016.8 +3.3 6
09 20.03 СВ 4 17 км {ливн. осадки} 9/9 600 м
[Sc]
+7.0 +3.8 80 +4 +4 1018.7 1016.1
12 20.03 СВ 6 20 км {ливн. осадки} 9/9 600 м
[Sc]
+9.7 -0.9 48 +7 +7 1016.4 1014.0
15 20.03 СВ 5 22 км слабый ливневой дождь 8/8 600 м
[Cb cap]
+9.2 +3.8 69 +6 +6 1016.0 1013.6
18 20.03 С 4 10 км {ливн. осадки} 10/10 600 м
[Sc]
+8.4 +3.0 69 +5 +5 1016.5 1014.1 +9.7
21 20.03 С 4 10 км 10/10 600 м
[Sc]
+7.9 +2.9 71 +5 +5 1016.9 1014.4
00 21.03 С 4 10 км 10/10 600 м
[Sc]
+6.4 +1.7 72 +3 +3 1016.5 1014.0
03 21.03 С 3 10 км 10/10 600 м
[Sc]
+5.7 +1.1 72 +3 +3 1016.4 1013.9
06 21.03 СЗ 4 10 км 10/10 600 м
[Sc]
+5.0 +0.6 73 +1 +1 1017.5 1014.9 +5.0
09 21.03 С 3 20 км ясно +10.8 +1.3 52 +9 +18 1017.5 1015.1
12 21.03 В 1 22 км ясно +11.4 +1.5 51 +12 +21 1016.3 1013.9
15 21.03 Ю 2 17 км 6/3 600 м
[Sc Ci fib]
+8.3 +2.1 65 +7 +7 1015.3 1012.9
18 21.03 З 2 10 км ясно +8.2 +1.1 61 +7 +7 1016.4 1014.0 +12.6
21 21.03 З 2 10 км ясно +8.4 +0.4 57 +7 +7 1016.5 1014.1
00 22.03 З 2 10 км ясно +7.4 -0.2 59 +6 +6 1016.3 1013.7
03 22.03 Ю 2 10 км ясно +5.5 +0.9 72 +3 +3 1016.1 1013.6
06 22.03 ЮЗ 1 12 км 8/0
[Cc]
+7.0 +2.7 74 +6 +9 1016.1 1013.6 +5.5
09 22.03 З 1 12 км 3/0
[Ci sp]
+10.4 +3.2 61 +10 +22 опасность
простуды
1016.5 1014.1
12 22.03 Ю 5 27 км ясно +8.8 +4.8 76 +5 +10 1015.1 1012.7
15 22.03 Ю 2 20 км 4/0
[Ci sp]
+8.7 +4.6 75 +7 +8 1013.9 1011.5
18 22.03 З 1 10 км 3/0
[Cc]
+10.4 +4.1 65 +10 +10 1014.9 1012.5 +11.7
21 22.03 С 8 10 км ясно +9.4 +2.3 61 +5 +5 1016.8 1014.4
00 23.03 СВ 8 10 км ясно +4.1 +4.1 100 -2 -2 1019.5 1016.9
03 23.03 СВ 8 10 км {ливн. осадки} 3/3 600 м
[Sc]
+2.5 -2.4 70 -4 -4 1021.5 1018.9
06 23.03 С 3 12 км {ливн. осадки} 8/8 600 м
[Sc]
+1.2 +4.4 100 -4 -3 1023.5 1020.9 +0.6 0.0
09 23.03 В 6 30 км н/о +3.7 -6.8 46 -1 -1 1024.1 1021.6
12 23.03 В 5 30 км ясно +5.9 -4.6 47 +2 +7 1023.3 1020.8
15 23.03 В 4 30 км ясно +5.8 -7.4 38 +3 +3 1022.9 1020.4
18 23.03 СВ 1 10 км ясно +3.8 -7.6 43 +3 +3 1024.1 1021.6 +6.3
21 23.03 В 2 10 км ясно +3.5 -6.3 49 +1 +1 1024.5 1022.0
00 24.03 СЗ 1 10 км ясно -0.2 -5.8 66 -2 -2 1024.5 1022.0
03 24.03 штиль 0 10 км ясно -1.4 -5.8 72 -2 -2 1024.8 1022.3
06 24.03 Ю 4 30 км н/о +4.6 -3.5 56 +1 +1 1025.5 1022.9 -1.6
09 24.03 Ю 5 30 км ясно +6.3 -3.6 49 +3 +8 1026.1 1023.6
12 24.03 Ю 5 30 км ясно +5.9 -3.1 52 +2 +7 1025.1 1022.5
15 24.03 Ю 6 30 км ясно +4.9 -1.0 66 0 +1 1024.3 1021.7
18 24.03 Ю 7 10 км ясно +4.2 0.0 74 -1 -1 1024.3 1021.7 +6.6
21 24.03 Ю 5 10 км ясно +4.3 +0.6 77 -0 -0 1024.1 1021.6
00 25.03 Ю 6 10 км ясно +4.6 +2.1 84 -1 -1 1022.5 1020.0
03 25.03 Ю 6 10 км ясно +4.6 +2.9 89 -1 -1 1023.5 1020.9
06 25.03 Ю 3 10 км 4/4 600 м
[St]
+6.0 +4.6 91 +3 +4 1024.0 1021.5 +4.2
09 25.03 Ю 6 20 км 8/8 600 м
[Sc]
+7.0 +4.3 83 +3 +3 1024.1 1021.6
12 25.03 Ю 6 23 км 8/8 600 м
[Sc]
+7.1 +1.1 66 +3 +4 1023.7 1021.2
15 25.03 Ю 4 20 км 5/5 600 м
[]
+7.6 +4.1 78 +4 +5 1022.8 1020.3
18 25.03 ЮВ 2 10 км 4/0
[Ci fib]
+4.8 +3.6 92 +2 +2 1022.8 1020.3 +8.1
21 25.03 Ю 7 10 км 8/8 600 м
[Sc]
+5.8 +4.2 89 +1 +1 1022.3 1019.7
00 26.03 Ю 2 10 км 8/8 600 м
[Sc]
+5.8 +4.9 94 +3 +3 1022.5 1020.0
03 26.03 ЮВ 2 10 км 8/8 600 м
[Sc]
+5.5 +4.8 95 +3 +3 1021.3 1018.8
06 26.03 Ю 2 13 км 10/10 600 м
[Sc]
+5.8 +5.6 99 +3 +3 1021.3 1018.8 +4.6
09 26.03 Ю 3 12 км 10/10 600 м
[Sc]
+6.9 +5.6 91 +4 +4 1021.5 1018.9
12 26.03 Ю 3 20 км 10/10 600 м
[Sc]
+6.7 +5.1 90 +4 +4 1020.9 1018.4
15 26.03 ЮВ 2 20 км 10/10 600 м
[Sc]
+6.7 +5.6 93 +4 +4 1018.5 1016.0
18 26.03 ЮВ 4 10 км 10/10 600 м
[Sc]
+6.3 +5.6 95 +2 +2 1018.1 1015.6 +7.9

 

Местоположение метеостанции Ильичевск (Одесская область, Украина): широта 46.40 долгота 30.70 высота над уровнем моря 52 м.

В архиве по умолчанию представлена погода в Ильичёвске за последнюю неделю. Архивные данные за месяц целиком и за предыдущие месяцы, начиная с января 2011 года, Вы можете получить, выбрав интересующий диапазон дат из раскрывающегося списка и нажав кнопку "Ввод!".

Внимание! Время в таблицах - всемирное. Для получения местного времени необходимо прибавить поправку, которая в Ильичёвске равна 2 ч.

Ветер - указаны скорость ветра в м/с - средняя за 10 мин, порывы в срок и между сроками (в фигурных скобках) и направление, откуда дует ветер: С - северный, СВ - северо-восточный, В - восточный, ЮВ - юго-восточный, Ю - южный, ЮЗ - юго-западный, З - западный, СЗ - северо-западный.
Видимость - горизонтальная дальность видимости в метрах или километрах. При видимости от 1 до 10 км при отсутствии осадков обычно наблюдается дымка, при ухудшении видимости до 1 км и менее - туман. В сухую погоду видимость может ухудшаться дымом, пылью или мглою.
Явления - указаны атмосферные явления, наблюдавшиеся в срок или в последний час перед сроком; фигурными скобками обозначены явления, наблюдавшиеся между сроками (за 1-3 часа до срока); квадратными скобками обозначены град или гололедные отложения с указанием их диаметра в мм.
Облачность - указаны через наклонную черту общая и нижняя облачность в баллах и высота нижней границы облаков в метрах; квадратными скобками обозначены формы облаков: Ci - перистые, Cs - перисто-слоистые, Cc - перисто-кучевые, Ac - высококучевые, As - высокослоистые, Sc - слоисто-кучевые, Ns - слоисто-дождевые, Cu - кучевые, Cb - кучево-дождевые. Подробнее классификацию облаков см. в Атласе облаков (PDF).
T - Температура воздуха - температура, измеренная на высоте 2 м над землей.
Td - Температура точки росы - температура, при понижении до которой содержащийся в воздухе водяной пар достигнет насыщения.
f - Относительная влажность воздуха - влажноcть воздуха, измеренная на высоте 2 м над землей.
Te - Эффективная температура - температура, которую ощущает одетый по сезону человек в тени. Характеристика душности погоды. При расчете учитывается влияние влажности воздуха и скорости ветра на теплоощущения человека.
Tes - Эффективная температура на солнце - температура, которую ощущает человек, с поправкой на солнечный нагрев. Характеристика знойности погоды. Зависит от высоты солнца над горизонтом, облачности и скорости ветра. Ночью, в пасмурную погоду, а также при ветре 12 м/с и более поправка равна нулю.
P - Атмосферное давление - приведенное к уровню моря атмосферное давление.
Po - Атмосферное давление - измеренное на уровне метеостанции атмосферное давление.
Tmin - Минимальная температура - минимум температуры воздуха на высоте 2 м над землей.
Tmax - Максимальная температура - максимум температуры воздуха на высоте 2 м над землей.
R - Количество осадков - Количество выпавших осадков, мм.
S - Снежный покров - Высота снежного покрова, см.